User: anonymous   Login
Location: Carrer del Canonge
(41.4901°N, 2.2931°E)
Time: 12:35:19
(UTC+00:00)
Language:

SPOT 3 Rocket - Orbit

View from above orbital plane
View from above orbital plane
View from above satellite
View from above satellite

Ground track
Ground track

The orbit data is extracted from the following two-line orbital elements,

1 22830U 93061H   21132.10526840  .00000008  00000-0  19979-4 0  9996
2 22830  98.7161 189.5229 0012051  80.3930 279.8614 14.31480144442093
Epoch (UTC): 12 May 2021 02:31:35
Eccentricity: 0.0012051
inclination: 98.7161°
perigee height: 778 km
apogee height: 795 km
right ascension of ascending node: 189.5229°
argument of perigee: 80.3930°
revolutions per day: 14.31480144
mean anomaly at epoch: 279.8614°
orbit number at epoch: 44209

The dashed part of the orbit path shows where the satellite is in the earth's shadow,  

DLR